Location: Claremont
(33.9858°S, 18.4575°E)
Time: 09:39:34
(UTC+00:00)

Timation 1 Rocket - Visible Passes

Search period start: 20 June 2021 00:00
Search period end: 30 June 2021 00:00
Orbit: 899 x 908 km, 70.0° (Epoch: 19 June)

Date Brightness Start Highest point End Pass type
(mag) Time Alt. Az. Time Alt. Az. Time Alt. Az.
20 Jun 6.8 03:52:41 10° SSE 03:55:54 15° SE 03:59:06 10° E visible
21 Jun 6.6 03:55:32 10° S 03:59:48 20° SE 04:04:01 10° E visible
22 Jun 6.2 03:58:40 10° S 04:03:38 26° ESE 04:08:33 10° ENE visible
22 Jun 6.6 18:56:36 10° NNW 18:57:28 15° NNW 18:57:28 15° NNW visible
23 Jun 5.8 04:01:58 10° S 04:07:25 34° ESE 04:12:48 10° NE visible
23 Jun 6.2 17:17:43 10° NE 17:18:54 13° NE 17:18:54 13° NE visible
23 Jun 6.4 19:00:22 10° NW 19:02:06 20° NW 19:02:06 20° NW visible
24 Jun 5.3 04:05:22 10° S 04:11:10 47° ESE 04:16:53 10° NE visible
24 Jun 5.6 17:20:12 10° NNE 17:23:32 22° ENE 17:23:32 22° ENE visible
24 Jun 6.3 19:04:17 10° NW 19:06:44 24° WNW 19:06:44 24° WNW visible
25 Jun 4.7 04:09:20 12° SSW 04:14:51 64° ESE 04:20:46 10° NNE visible
25 Jun 5.0 17:23:03 10° NNE 17:28:11 32° ENE 17:28:11 32° ENE visible
25 Jun 6.3 19:08:24 10° WNW 19:11:23 25° W 19:11:23 25° W visible
26 Jun 6.9 02:30:28 11° SE 02:32:07 12° SE 02:34:26 10° ESE visible
26 Jun 4.3 04:13:38 16° SSW 04:18:31 86° ESE 04:24:29 10° NNE visible
26 Jun 4.6 17:26:10 10° N 17:31:51 45° ENE 17:32:49 42° E visible
26 Jun 6.4 19:12:43 10° WNW 19:16:00 22° W 19:16:00 22° W visible
27 Jun 6.6 02:34:49 16° SE 02:36:02 17° SE 02:39:43 10° E visible
27 Jun 4.3 04:17:59 21° SSW 04:22:08 70° WNW 04:28:03 10° NNE visible
27 Jun 4.3 17:29:29 10° N 17:35:25 62° ENE 17:37:24 41° SE visible
27 Jun 6.6 19:17:19 10° W 19:20:34 18° WSW 19:20:34 18° WSW visible
28 Jun 6.3 02:39:15 22° SE 02:39:55 22° ESE 02:44:27 10° ENE visible
28 Jun 4.5 04:22:25 25° SW 04:25:42 50° WNW 04:31:25 10° N visible
28 Jun 4.2 17:32:59 10° NNW 17:39:00 85° ENE 17:41:56 33° SSE visible
28 Jun 6.9 19:22:20 10° W 19:25:06 14° SW 19:25:06 14° SW visible
29 Jun 5.9 02:43:45 29° ESE 02:43:45 29° ESE 02:48:51 10° ENE visible
29 Jun 4.9 04:26:56 27° WSW 04:29:14 36° WNW 04:34:37 10° N visible
29 Jun 4.5 17:36:39 10° NNW 17:42:39 71° WSW 17:46:23 24° SSE visible
